INTELSAT 37E (IS-37E)

Last updated on Mon Sep 07 2026 00:03:00 GMT+0000 (Coordinated Universal Time)

1 42950U 17059A 26249.37438125 -.00000156 00000+0 00000+0 0 9999 2 42950 0.0164 228.4398 0002689 304.0425 289.7694 1.00270459 32886
UTC large
Height (km)
Speed (km/s)
/
Latitude / Longitude
Inclination (degrees)
Orbital Period (minutes)
Azimuth
Elevation
Range (km)
Doppler Factor

Next 0 passes for location: London (51.5072 / 0.1276)

No passes found over London.
INTELSAT 37E (IS-37E)